Вернуться в каталог

STARLINK-36344

АктивенСвязьSSO
NORAD 67710·PAYLOAD·🇺🇸 United States

Запущен Feb 7, 2026 с Vandenberg Space Force Base

Loading…

Ближайшие Пролёты (ближайшие 24 часа)

TLE

СвежийSource: CelesTrak SupGP

Эпоха: Sep 14, 2026, 22:55 UTC

1 67710C 26025T   26257.95534722 -.00200320  00000+0 -62104-2 0  2575
2 67710  97.2850   7.9437 0001092  96.7002   8.4641 15.33581729    18

Отслеживайте STARLINK-36344 в реальном времени с AllMySat

Download on the App Store